Time,TemperatureF,DewpointF,PressureIn,WindDirection,WindDirectionDegrees,WindSpeedMPH,WindSpeedGustMPH,Humidity,HourlyPrecipIn,Conditions,Clouds,dailyrainin,SolarRadiationWatts/m^2,SoftwareType,DateUTC
2013-03-02 00:08:00,27.2,22.4,30.06,NNW,346,6.0,8.0,82,0.00,,---,0.00,0.00,VWS V14.00,2013-03-02 05:08:00,
2013-03-02 00:18:00,27.1,22.6,30.06,NNW,340,6.0,10.0,83,0.00,,---,0.00,0.00,VWS V14.00,2013-03-02 05:18:00,
2013-03-02 00:28:00,26.9,22.4,30.06,NW,320,5.0,8.0,83,0.00,,---,0.00,0.00,VWS V14.00,2013-03-02 05:28:00,
2013-03-02 00:38:00,26.8,22.3,30.06,NNW,327,5.0,6.0,83,0.00,,---,0.00,0.00,VWS V14.00,2013-03-02 05:38:00,
2013-03-02 00:48:00,26.8,22.3,30.07,NNW,333,3.0,6.0,83,0.00,,---,0.00,0.00,VWS V14.00,2013-03-02 05:48:00,
2013-03-02 00:58:00,26.9,22.4,30.06,NNW,337,4.0,8.0,83,0.00,,---,0.00,0.00,VWS V14.00,2013-03-02 05:58:00,
2013-03-02 01:08:00,26.9,22.4,30.06,NNW,335,7.0,8.0,83,0.00,,---,0.00,0.00,VWS V14.00,2013-03-02 06:08:00,
2013-03-02 01:18:00,26.9,22.4,30.06,NNW,340,5.0,7.0,83,0.00,,---,0.00,0.00,VWS V14.00,2013-03-02 06:18:00,
2013-03-02 01:28:00,26.9,22.1,30.07,NNW,336,4.0,8.0,82,0.00,,---,0.00,0.00,VWS V14.00,2013-03-02 06:28:00,
2013-03-02 01:38:00,26.9,22.1,30.06,NNW,339,8.0,11.0,82,0.00,,---,0.00,0.00,VWS V14.00,2013-03-02 06:38:00,
2013-03-02 01:48:00,26.6,21.9,30.07,NNW,332,4.0,10.0,82,0.00,,---,0.00,0.00,VWS V14.00,2013-03-02 06:48:00,
2013-03-02 01:58:00,26.6,21.9,30.06,NW,325,6.0,8.0,82,0.00,,---,0.00,0.00,VWS V14.00,2013-03-02 06:58:00,
2013-03-02 02:08:00,26.6,21.9,30.06,NNW,346,4.0,8.0,82,0.00,,---,0.00,0.00,VWS V14.00,2013-03-02 07:08:00,
2013-03-02 02:18:00,26.6,21.9,30.06,NNW,341,4.0,6.0,82,0.00,,---,0.00,0.00,VWS V14.00,2013-03-02 07:18:00,
2013-03-02 02:28:00,26.6,21.9,30.06,NW,321,6.0,8.0,82,0.00,,---,0.00,0.00,VWS V14.00,2013-03-02 07:28:00,
2013-03-02 02:38:00,26.6,21.9,30.06,North,355,2.0,8.0,82,0.00,,---,0.00,0.00,VWS V14.00,2013-03-02 07:38:00,
2013-03-02 02:48:00,26.5,21.5,30.05,NNW,340,4.0,8.0,81,0.00,,---,0.00,0.00,VWS V14.00,2013-03-02 07:48:00,
2013-03-02 02:58:00,26.5,21.8,30.05,NNW,342,6.0,8.0,82,0.00,,---,0.00,0.00,VWS V14.00,2013-03-02 07:58:00,
2013-03-02 03:08:00,26.3,21.6,30.05,NNW,342,8.0,9.0,82,0.00,,---,0.00,0.00,VWS V14.00,2013-03-02 08:08:00,
2013-03-02 03:18:00,26.2,21.5,30.05,NNW,341,6.0,9.0,82,0.00,,---,0.00,0.00,VWS V14.00,2013-03-02 08:18:00,
2013-03-02 03:28:00,26.0,21.3,30.05,NNW,341,3.0,14.0,82,0.00,,---,0.00,0.00,VWS V14.00,2013-03-02 08:28:00,
2013-03-02 03:38:00,25.8,20.8,30.05,NNE,16,3.0,6.0,81,0.00,,---,0.00,0.00,VWS V14.00,2013-03-02 08:38:00,
2013-03-02 03:48:00,25.8,21.1,30.05,NNW,341,5.0,7.0,82,0.00,,---,0.00,0.00,VWS V14.00,2013-03-02 08:48:00,
2013-03-02 03:58:00,25.9,21.5,30.05,NNW,327,7.0,11.0,83,0.00,,---,0.00,0.00,VWS V14.00,2013-03-02 08:58:00,
2013-03-02 04:08:00,25.7,21.0,30.05,NNW,337,5.0,9.0,82,0.00,,---,0.00,0.00,VWS V14.00,2013-03-02 09:08:00,
2013-03-02 04:18:00,25.7,21.3,30.05,NNW,348,8.0,8.0,83,0.00,,---,0.00,0.00,VWS V14.00,2013-03-02 09:18:00,
2013-03-02 04:28:00,25.6,21.2,30.05,NNW,340,7.0,8.0,83,0.00,,---,0.00,0.00,VWS V14.00,2013-03-02 09:28:00,
2013-03-02 04:38:00,25.6,21.2,30.05,NNW,342,5.0,10.0,83,0.00,,---,0.00,0.00,VWS V14.00,2013-03-02 09:38:00,
2013-03-02 04:48:00,25.4,21.0,30.05,NNW,339,7.0,9.0,83,0.00,,---,0.00,0.00,VWS V14.00,2013-03-02 09:48:00,
2013-03-02 04:58:00,25.4,21.2,30.05,NNW,333,6.0,10.0,84,0.00,,---,0.00,0.00,VWS V14.00,2013-03-02 09:58:00,
2013-03-02 05:18:00,25.1,20.4,30.05,NNW,340,7.0,10.0,82,0.00,,---,0.00,0.00,VWS V14.00,2013-03-02 10:18:00,
2013-03-02 05:28:00,25.1,20.4,30.05,NNW,344,3.0,9.0,82,0.00,,---,0.00,0.00,VWS V14.00,2013-03-02 10:28:00,
2013-03-02 05:38:00,25.0,20.0,30.05,NNE,30,6.0,6.0,81,0.00,,---,0.00,0.00,VWS V14.00,2013-03-02 10:38:00,
2013-03-02 05:48:00,25.0,20.0,30.05,North,355,4.0,7.0,81,0.00,,---,0.00,0.00,VWS V14.00,2013-03-02 10:48:00,
2013-03-02 05:58:00,25.1,20.1,30.05,NNW,335,3.0,8.0,81,0.00,,---,0.00,0.00,VWS V14.00,2013-03-02 10:58:00,
2013-03-02 06:08:00,25.2,20.2,30.05,NW,321,6.0,8.0,81,0.00,,---,0.00,0.00,VWS V14.00,2013-03-02 11:08:00,
2013-03-02 06:18:00,25.2,20.5,30.05,NW,313,5.0,7.0,82,0.00,,---,0.00,0.00,VWS V14.00,2013-03-02 11:18:00,
2013-03-02 06:28:00,25.1,20.4,30.05,North,351,5.0,9.0,82,0.00,,---,0.00,0.00,VWS V14.00,2013-03-02 11:28:00,
2013-03-02 06:38:00,25.1,20.4,30.05,NW,320,3.0,9.0,82,0.00,,---,0.00,0.00,VWS V14.00,2013-03-02 11:38:00,
2013-03-02 06:48:00,25.0,20.3,30.06,NNW,340,4.0,11.0,82,0.00,,---,0.00,0.00,VWS V14.00,2013-03-02 11:48:00,
2013-03-02 06:58:00,25.1,20.4,30.06,NW,322,4.0,7.0,82,0.00,,---,0.00,0.00,VWS V14.00,2013-03-02 11:58:00,
2013-03-02 07:08:00,25.2,20.5,30.06,NNW,329,4.0,6.0,82,0.00,,---,0.00,0.00,VWS V14.00,2013-03-02 12:08:00,
2013-03-02 07:18:00,25.2,22.4,30.06,NNW,348,3.0,10.0,89,0.00,,---,0.00,0.00,VWS V14.00,2013-03-02 12:18:00,
2013-03-02 07:28:00,25.3,20.9,30.06,North,9,5.0,9.0,83,0.00,,---,0.00,0.00,VWS V14.00,2013-03-02 12:28:00,
2013-03-02 07:38:00,25.2,20.5,30.07,NNW,327,4.0,7.0,82,0.00,,---,0.00,5.00,VWS V14.00,2013-03-02 12:38:00,
2013-03-02 07:48:00,25.3,20.9,30.07,North,355,3.0,10.0,83,0.00,,---,0.00,11.00,VWS V14.00,2013-03-02 12:48:00,
2013-03-02 07:58:00,25.2,20.2,30.07,North,355,6.0,7.0,81,0.00,,---,0.00,12.00,VWS V14.00,2013-03-02 12:58:00,
2013-03-02 08:08:00,25.2,20.5,30.07,NW,316,5.0,9.0,82,0.00,,---,0.00,16.00,VWS V14.00,2013-03-02 13:08:00,
2013-03-02 08:18:00,25.2,20.8,30.08,NNW,327,5.0,9.0,83,0.00,,---,0.00,26.00,VWS V14.00,2013-03-02 13:18:00,
2013-03-02 08:28:00,25.1,20.7,30.08,North,355,5.0,8.0,83,0.00,,---,0.00,28.00,VWS V14.00,2013-03-02 13:28:00,
2013-03-02 08:38:00,25.1,20.7,30.08,WNW,302,4.0,7.0,83,0.00,,---,0.00,23.00,VWS V14.00,2013-03-02 13:38:00,
2013-03-02 08:48:00,25.1,20.7,30.08,NNW,332,6.0,7.0,83,0.00,,---,0.00,33.00,VWS V14.00,2013-03-02 13:48:00,
2013-03-02 08:58:00,25.1,21.0,30.08,NNW,327,6.0,10.0,84,0.00,,---,0.00,49.00,VWS V14.00,2013-03-02 13:58:00,
2013-03-02 09:08:00,25.2,20.8,30.08,North,351,5.0,9.0,83,0.00,,---,0.00,62.00,VWS V14.00,2013-03-02 14:08:00,
2013-03-02 09:18:00,25.3,20.9,30.08,NNW,343,5.0,9.0,83,0.00,,---,0.00,42.00,VWS V14.00,2013-03-02 14:18:00,
2013-03-02 09:28:00,25.3,20.9,30.08,NNW,340,6.0,7.0,83,0.00,,---,0.00,42.00,VWS V14.00,2013-03-02 14:28:00,
2013-03-02 09:38:00,25.2,20.8,30.08,North,355,3.0,7.0,83,0.00,,---,0.00,37.00,VWS V14.00,2013-03-02 14:38:00,
2013-03-02 09:48:00,25.2,21.0,30.08,NW,321,5.0,7.0,84,0.00,,---,0.00,35.00,VWS V14.00,2013-03-02 14:48:00,
2013-03-02 09:58:00,25.3,21.1,30.08,NNW,331,5.0,7.0,84,0.00,,---,0.00,44.00,VWS V14.00,2013-03-02 14:58:00,
2013-03-02 10:08:00,25.3,21.1,30.08,NW,321,4.0,6.0,84,0.00,,---,0.00,44.00,VWS V14.00,2013-03-02 15:08:00,
2013-03-02 10:18:00,25.3,21.4,30.08,NW,323,5.0,9.0,85,0.00,,---,0.00,40.00,VWS V14.00,2013-03-02 15:18:00,
2013-03-02 10:28:00,25.4,21.5,30.08,NNW,341,5.0,9.0,85,0.00,,---,0.00,53.00,VWS V14.00,2013-03-02 15:28:00,
2013-03-02 10:38:00,25.4,21.5,30.08,NW,317,7.0,11.0,85,0.00,,---,0.00,67.00,VWS V14.00,2013-03-02 15:38:00,
2013-03-02 10:48:00,25.4,21.5,30.09,NNW,329,7.0,10.0,85,0.00,,---,0.00,93.00,VWS V14.00,2013-03-02 15:48:00,
2013-03-02 10:58:00,25.4,21.5,30.09,NW,322,6.0,9.0,85,0.00,,---,0.00,88.00,VWS V14.00,2013-03-02 15:58:00,
2013-03-02 11:08:00,25.6,21.7,30.09,NW,323,6.0,7.0,85,0.00,,---,0.00,104.00,VWS V14.00,2013-03-02 16:08:00,
2013-03-02 11:18:00,25.7,22.1,30.09,NNW,335,6.0,7.0,86,0.00,,---,0.00,141.00,VWS V14.00,2013-03-02 16:18:00,
2013-03-02 11:28:00,26.0,22.1,30.09,NNW,336,6.0,8.0,85,0.00,,---,0.00,207.00,VWS V14.00,2013-03-02 16:28:00,
2013-03-02 11:38:00,26.3,22.1,30.09,WNW,302,9.0,10.0,84,0.00,,---,0.00,146.00,VWS V14.00,2013-03-02 16:38:00,
2013-03-02 11:48:00,26.3,22.1,30.09,NW,311,8.0,9.0,84,0.00,,---,0.00,104.00,VWS V14.00,2013-03-02 16:48:00,
2013-03-02 11:58:00,26.1,21.9,30.09,NW,317,6.0,10.0,84,0.00,,---,0.00,107.00,VWS V14.00,2013-03-02 16:58:00,
2013-03-02 12:08:00,26.1,21.9,30.08,NW,310,6.0,8.0,84,0.00,,---,0.00,86.00,VWS V14.00,2013-03-02 17:08:00,
2013-03-02 12:18:00,26.0,22.1,30.08,NNW,336,5.0,8.0,85,0.00,,---,0.00,76.00,VWS V14.00,2013-03-02 17:18:00,
2013-03-02 12:28:00,25.9,21.7,30.09,NNW,335,5.0,8.0,84,0.00,,---,0.00,79.00,VWS V14.00,2013-03-02 17:28:00,
2013-03-02 12:38:00,26.0,22.1,30.09,NW,321,7.0,10.0,85,0.00,,---,0.00,76.00,VWS V14.00,2013-03-02 17:38:00,
2013-03-02 12:48:00,25.8,21.6,30.08,NW,317,5.0,11.0,84,0.00,,---,0.00,95.00,VWS V14.00,2013-03-02 17:48:00,
2013-03-02 12:58:00,25.8,21.4,30.08,NNW,328,7.0,10.0,83,0.00,,---,0.00,113.00,VWS V14.00,2013-03-02 17:58:00,
2013-03-02 13:08:00,25.8,21.1,30.08,NNW,333,4.0,10.0,82,0.00,,---,0.00,130.00,VWS V14.00,2013-03-02 18:08:00,
2013-03-02 13:18:00,26.0,21.0,30.07,NNW,332,6.0,11.0,81,0.00,,---,0.00,153.00,VWS V14.00,2013-03-02 18:18:00,
2013-03-02 13:28:00,26.3,21.0,30.07,NW,314,7.0,8.0,80,0.00,,---,0.00,137.00,VWS V14.00,2013-03-02 18:28:00,
2013-03-02 13:38:00,26.4,20.8,30.07,NNW,327,7.0,9.0,79,0.00,,---,0.00,120.00,VWS V14.00,2013-03-02 18:38:00,
2013-03-02 13:48:00,26.4,20.5,30.06,NW,314,5.0,9.0,78,0.00,,---,0.00,127.00,VWS V14.00,2013-03-02 18:48:00,
2013-03-02 13:58:00,26.5,20.6,30.07,NNW,341,5.0,9.0,78,0.00,,---,0.00,107.00,VWS V14.00,2013-03-02 18:58:00,
2013-03-02 14:08:00,26.5,20.6,30.07,NW,321,4.0,9.0,78,0.00,,---,0.00,105.00,VWS V14.00,2013-03-02 19:08:00,
2013-03-02 14:18:00,26.5,20.9,30.06,NNW,341,6.0,8.0,79,0.00,,---,0.00,146.00,VWS V14.00,2013-03-02 19:18:00,
2013-03-02 14:28:00,26.5,20.3,30.06,NW,324,5.0,9.0,77,0.00,,---,0.00,127.00,VWS V14.00,2013-03-02 19:28:00,
2013-03-02 14:38:00,26.6,20.7,30.06,NW,321,4.0,6.0,78,0.00,,---,0.00,114.00,VWS V14.00,2013-03-02 19:38:00,
2013-03-02 14:48:00,26.7,21.1,30.06,NW,315,7.0,7.0,79,0.00,,---,0.00,90.00,VWS V14.00,2013-03-02 19:48:00,
2013-03-02 14:58:00,26.6,21.0,30.07,NW,313,7.0,9.0,79,0.00,,---,0.00,90.00,VWS V14.00,2013-03-02 19:58:00,
2013-03-02 15:08:00,26.5,20.9,30.06,NW,314,3.0,8.0,79,0.00,,---,0.00,83.00,VWS V14.00,2013-03-02 20:08:00,
2013-03-02 15:18:00,26.4,20.8,30.06,NW,317,6.0,8.0,79,0.00,,---,0.00,102.00,VWS V14.00,2013-03-02 20:18:00,
2013-03-02 15:28:00,26.5,20.9,30.07,NW,306,2.0,7.0,79,0.00,,---,0.00,84.00,VWS V14.00,2013-03-02 20:28:00,
2013-03-02 15:38:00,26.6,20.7,30.06,NW,316,4.0,6.0,78,0.00,,---,0.00,90.00,VWS V14.00,2013-03-02 20:38:00,
2013-03-02 15:48:00,26.7,20.5,30.06,NW,326,6.0,9.0,77,0.00,,---,0.00,72.00,VWS V14.00,2013-03-02 20:48:00,
2013-03-02 15:58:00,26.9,21.0,30.06,NW,325,7.0,8.0,78,0.00,,---,0.00,58.00,VWS V14.00,2013-03-02 20:58:00,
2013-03-02 16:08:00,26.9,20.7,30.06,NW,318,7.0,8.0,77,0.00,,---,0.00,65.00,VWS V14.00,2013-03-02 21:08:00,
2013-03-02 16:18:00,26.9,20.7,30.07,NW,317,5.0,10.0,77,0.00,,---,0.00,51.00,VWS V14.00,2013-03-02 21:18:00,
2013-03-02 16:28:00,26.8,20.6,30.07,NW,310,4.0,8.0,77,0.00,,---,0.00,39.00,VWS V14.00,2013-03-02 21:28:00,
2013-03-02 16:38:00,26.9,21.3,30.07,NW,313,2.0,6.0,79,0.00,,---,0.00,33.00,VWS V14.00,2013-03-02 21:38:00,
2013-03-02 16:48:00,26.8,20.9,30.07,NW,315,3.0,8.0,78,0.00,,---,0.00,32.00,VWS V14.00,2013-03-02 21:48:00,
2013-03-02 16:58:00,26.8,21.2,30.07,NW,309,6.0,7.0,79,0.00,,---,0.00,33.00,VWS V14.00,2013-03-02 21:58:00,
2013-03-02 17:08:00,26.7,21.1,30.07,NW,319,6.0,7.0,79,0.00,,---,0.00,32.00,VWS V14.00,2013-03-02 22:08:00,
2013-03-02 17:18:00,26.7,20.8,30.08,NW,323,3.0,8.0,78,0.00,,---,0.00,19.00,VWS V14.00,2013-03-02 22:18:00,
2013-03-02 17:28:00,26.6,20.7,30.08,NW,312,7.0,9.0,78,0.00,,---,0.00,16.00,VWS V14.00,2013-03-02 22:28:00,
2013-03-02 17:38:00,26.5,20.3,30.08,NW,321,7.0,11.0,77,0.00,,---,0.00,14.00,VWS V14.00,2013-03-02 22:38:00,
2013-03-02 17:48:00,26.5,20.3,30.08,NW,321,6.0,9.0,77,0.00,,---,0.00,11.00,VWS V14.00,2013-03-02 22:48:00,
2013-03-02 17:58:00,26.5,20.0,30.08,NW,321,6.0,10.0,76,0.00,,---,0.00,5.00,VWS V14.00,2013-03-02 22:58:00,
2013-03-02 18:08:00,26.5,20.3,30.08,NW,313,4.0,7.0,77,0.00,,---,0.00,0.00,VWS V14.00,2013-03-02 23:08:00,
2013-03-02 18:18:00,26.5,20.3,30.09,NW,325,2.0,7.0,77,0.00,,---,0.00,0.00,VWS V14.00,2013-03-02 23:18:00,
2013-03-02 18:28:00,26.5,20.3,30.09,NW,321,3.0,5.0,77,0.00,,---,0.00,0.00,VWS V14.00,2013-03-02 23:28:00,
2013-03-02 18:38:00,26.5,20.6,30.09,NW,322,4.0,6.0,78,0.00,,---,0.00,0.00,VWS V14.00,2013-03-02 23:38:00,
2013-03-02 18:48:00,26.4,20.5,30.09,NW,326,4.0,5.0,78,0.00,,---,0.00,0.00,VWS V14.00,2013-03-02 23:48:00,
2013-03-02 18:58:00,26.4,20.5,30.09,NNW,330,4.0,4.0,78,0.00,,---,0.00,0.00,VWS V14.00,2013-03-02 23:58:00,
2013-03-02 19:08:00,26.4,20.5,30.09,NNW,329,3.0,4.0,78,0.00,,---,0.00,0.00,VWS V14.00,2013-03-03 00:08:00,
2013-03-02 19:18:00,26.4,20.5,30.09,NW,322,2.0,5.0,78,0.00,,---,0.00,0.00,VWS V14.00,2013-03-03 00:18:00,
2013-03-02 19:28:00,26.4,20.8,30.09,NW,322,0.0,4.0,79,0.00,,---,0.00,0.00,VWS V14.00,2013-03-03 00:28:00,
2013-03-02 19:38:00,26.3,20.7,30.09,NW,322,2.0,3.0,79,0.00,,---,0.00,0.00,VWS V14.00,2013-03-03 00:38:00,
2013-03-02 19:48:00,26.3,20.7,30.09,NW,322,0.0,3.0,79,0.00,,---,0.00,0.00,VWS V14.00,2013-03-03 00:48:00,
2013-03-02 19:58:00,26.2,20.6,30.09,NW,322,2.0,3.0,79,0.00,,---,0.00,0.00,VWS V14.00,2013-03-03 00:58:00,
2013-03-02 20:08:00,26.2,20.9,30.09,NW,322,2.0,3.0,80,0.00,,---,0.00,0.00,VWS V14.00,2013-03-03 01:08:00,
2013-03-02 20:18:00,26.2,20.9,30.09,NW,322,0.0,2.0,80,0.00,,---,0.00,0.00,VWS V14.00,2013-03-03 01:18:00,
2013-03-02 20:28:00,26.2,20.9,30.09,NW,322,0.0,0.0,80,0.00,,---,0.00,0.00,VWS V14.00,2013-03-03 01:28:00,
2013-03-02 20:38:00,26.2,21.2,30.09,NW,322,0.0,2.0,81,0.00,,---,0.00,0.00,VWS V14.00,2013-03-03 01:38:00,
2013-03-02 20:48:00,26.2,21.2,30.09,NW,322,0.0,2.0,81,0.00,,---,0.00,0.00,VWS V14.00,2013-03-03 01:48:00,
2013-03-02 20:58:00,26.2,21.2,30.09,NW,322,0.0,1.0,81,0.00,,---,0.00,0.00,VWS V14.00,2013-03-03 01:58:00,
2013-03-02 21:08:00,26.2,21.2,30.10,NW,322,1.0,2.0,81,0.00,,---,0.00,0.00,VWS V14.00,2013-03-03 02:08:00,
2013-03-02 21:18:00,26.2,21.2,30.10,NW,322,0.0,3.0,81,0.00,,---,0.00,0.00,VWS V14.00,2013-03-03 02:18:00,
2013-03-02 21:28:00,26.1,21.1,30.10,NW,322,0.0,0.0,81,0.00,,---,0.00,0.00,VWS V14.00,2013-03-03 02:28:00,
2013-03-02 21:38:00,26.1,21.1,30.10,NW,322,0.0,0.0,81,0.00,,---,0.00,0.00,VWS V14.00,2013-03-03 02:38:00,
2013-03-02 21:48:00,26.1,21.1,30.10,NW,322,0.0,0.0,81,0.00,,---,0.00,0.00,VWS V14.00,2013-03-03 02:48:00,
2013-03-02 21:58:00,26.1,21.1,30.10,NW,322,0.0,1.0,81,0.00,,---,0.00,0.00,VWS V14.00,2013-03-03 02:58:00,
2013-03-02 22:08:00,26.0,21.0,30.09,NW,322,0.0,0.0,81,0.00,,---,0.00,0.00,VWS V14.00,2013-03-03 03:08:00,
2013-03-02 22:18:00,26.0,21.0,30.09,NW,322,0.0,0.0,81,0.00,,---,0.00,0.00,VWS V14.00,2013-03-03 03:18:00,
2013-03-02 22:28:00,26.0,21.0,30.09,NW,322,0.0,0.0,81,0.00,,---,0.00,0.00,VWS V14.00,2013-03-03 03:28:00,
2013-03-02 22:38:00,26.0,21.0,30.09,NW,322,0.0,2.0,81,0.00,,---,0.00,0.00,VWS V14.00,2013-03-03 03:38:00,
2013-03-02 22:48:00,25.9,20.9,30.09,NW,322,0.0,0.0,81,0.00,,---,0.00,0.00,VWS V14.00,2013-03-03 03:48:00,
2013-03-02 22:58:00,25.9,20.9,30.09,NW,322,0.0,2.0,81,0.00,,---,0.00,0.00,VWS V14.00,2013-03-03 03:58:00,
2013-03-02 23:08:00,25.9,20.9,30.09,NW,322,0.0,0.0,81,0.00,,---,0.00,0.00,VWS V14.00,2013-03-03 04:08:00,
2013-03-02 23:18:00,25.8,20.8,30.09,NW,322,0.0,0.0,81,0.00,,---,0.00,0.00,VWS V14.00,2013-03-03 04:18:00,
2013-03-02 23:28:00,25.8,21.1,30.09,NW,322,0.0,0.0,82,0.00,,---,0.00,0.00,VWS V14.00,2013-03-03 04:28:00,
2013-03-02 23:38:00,25.8,21.1,30.08,NW,322,0.0,0.0,82,0.00,,---,0.00,0.00,VWS V14.00,2013-03-03 04:38:00,
2013-03-02 23:48:00,25.7,21.0,30.09,NW,322,0.0,0.0,82,0.00,,---,0.00,0.00,VWS V14.00,2013-03-03 04:48:00,
2013-03-02 23:58:00,25.7,21.0,30.08,NW,322,0.0,1.0,82,0.00,,---,0.00,0.00,VWS V14.00,2013-03-03 04:58:00,